Погода Шахунья

Погода Шахунья : погода сейчас, прогноз погоды и архив. Всё, что Вы хотите узнать о погоде Шахунья!

Поиск расширенной информации на нашем сайте:

Другие новости

Новости СМИ2

Главная страница сайта

Новости сайта

03.07.2017

Напоминаем, что на нашем специализированном сайте Метеоцентр.Азия вы можете получить высокодетализированные автоматические прогнозы погоды по пунктам России, СНГ и мира в авиационном формате (включающие направление и скорость ветра, видимость, явления погоды, количество и форму облачности, нижнюю и верхнюю границу облачности).


Погода Шахунья - сегодня

Время (UTC), дата Ветер
(°,м/с) 
Видим.   Явления Облачность Т
(°С)
Тd
(°С)
f(%) Тe
(°С)
Pmin
(гПа)
dP
(гПа)
Po
(мм)
O2
(г/м3)
Тmin Tmax R s Состояние
почвы
18 15.09.18 170 (Ю) 2-3{03}  4000 м    ясно 
+10.2 +8.1 87 +10  1021.4  0.6  750  290           
21 15.09.18 150 (ЮВ) 2-3{03}  4000 м    ясно 
+9.4 +6.8 84 +9  1021.6  750  291           
03 16.09.18 140 (ЮВ) 2-4{04}  20000 м    5/0 верхняя 
[Ci]
+8.2 +5.6 84 +8  1019.5  -1.5  749  292  +7.8        сухая 
15 16.09.18 130 (ЮВ) 5-7{10}  20000 м    10/3 1000 м средняя 
[Sc|Ac As]
+18.6 +9.3 55 +19  1009.9  -2.3  742  278    +21       
03 17.09.18 290 (З) 1-2{05}  20000 м    10/0 средняя 
[Ac As]
+11.6 +8.4 81 +13  1004.9  -0.7  738  284  +11        сухая 
15 17.09.18 320 (СЗ) 2-3{09}  20000 м    3/3 2000 м средняя, верхняя 
[Ac trans|Ci fib]
+11.8 +4.8 62 +12  1013.5  2.3  744  287    +13.4  0.4     
21 17.09.18 160 (Ю) 1-2{02}  4000 м    ясно 
+2.6 +1.8 94 +3  1015.9  0.1  746  297           
03 18.09.18 160 (Ю) 3-3{03}  20000 м    8/0 верхняя 
[Cs]
+2.7 +1.9 94 +1  1013.6  -1.7  744  297  +2.2        сухая 
15 18.09.18 230 (ЮЗ) 3-6{08}  10 км  в посл. час ливневой дождь  10/10 200 м 
[St]
+9.6 +8.4 92 +9  1006.1  -1.5  739  286    +12     
03 19.09.18 320 (СЗ) 4-7{11}  4000 м  слаб. дождь{ливн. осадки}  10/10 200 м 
[Frnb|Ns]
+7.4 +6.2 92 +6  1006.7  1.4  739  289  +7.3      влажная 
15 19.09.18 320 (СЗ) 2-4{10}  20000 м    6/5 600 м верхняя 
[Sc|Cs]
+11 +5.1 67 +11  1010.5  0.9  742  287    +11.5  0.0     
18 19.09.18 тихо () -0{04}  4000 м    ясно 
+5 +4.3 95 +5  1011.7  0.7  743  293           
03 20.09.18 170 (Ю) 1-1{02}  20000 м    10/9 600 м средняя 
[Sc|Ac cuf]
+5 +4.3 95 +6  1011.7  -0.4  743  293  +2        влажная 
15 20.09.18 170 (Ю) 1-1{03}  4000 м  слаб. морось  10/10 200 м 
[St]
+11.4 +10.6 95 +15  1010.3  0.7  742  285    +11.7  0.9     
03 21.09.18 310 (СЗ) 1-2{02}  1000 м  дымка{морось}  10/10 100 м 
[St]
+12.8 +12.2 96 +18  1014.2  1.5  745  284  +11.1      влажная 
15 21.09.18 230 (ЮЗ) 2-2{06}  20000 м    8/8 1000 м верхняя 
[Sc diur, vesp|Ci fib]
+18 +13.6 75 +25  1016.3  0.8  747  280    +20.5       
03 22.09.18 230 (ЮЗ) 2-4{05}  20000 м    10/10 1500 м 
[Ac As]
+14 +12.9 93 +20  1017.7  -0.2  748  284  +13.5        влажная 
15 22.09.18 190 (Ю) 2-2{06}  20000 м    3/0 верхняя 
[Ci fib]
+19.4 +14.4 73 +28  1016.1  -0.7  747  278    +24.4       
18 22.09.18 190 (Ю) 3-4{04}  4000 м    ясно 
+15.3 +13.1 87 +22  1016  -0.5  746  282           
21 22.09.18 180 (Ю) 3-4{05}  4000 м    ясно 
+13.6 +11.8 89 +18  1015.4  -0.7  746  284           
03 23.09.18 170 (Ю) 4-5{06}  20000 м    3/0 верхняя 
[Ci sp]
+12 +10 88 +12  1014  -1  745  286  +11.8        сухая 
15 23.09.18 170 (Ю) 4-5{13}  20000 м    6/0 2000 м средняя, верхняя 
[Ac lent|Ci]
+19.8 +10.6 55 +22  1006.9  -1.8  740  276    +22.3       
03 24.09.18 290 (З) 2-5{06}  20000 м  морось  10/10 200 м 
[St]
+10 +10 100 +11  1007.7  0.5  740  286  +10        влажная 
15 24.09.18 160 (Ю) 2-3{05}  20000 м    8/4 600 м средняя 
[Sc|Ac As]
+9.4 +8 91 +9  1011.8  0.4  743  288    +12.1     
03 25.09.18 140 (ЮВ) 5-8{09}  20000 м    10/8 600 м средняя 
[Sc|Ac As]
+8.4 +5.5 82 +7  1006.4  -2  739  288  +7.8        влажная 
Время (UTC), дата Ветер
(°,м/с) 
Видим.   Явления Облачность Т
(°С)
Тd
(°С)
f(%) Тe
(°С)
Pmin
(гПа)
dP
(гПа)
Po
(мм)
O2
(г/м3)
Тmin Tmax R s Состояние
почвы

Для получения пояснительной информации подведите курсор к названию столбца.

ПОГОДА Шахунья - архив

Всё, что Вы хотите узнать о погоде Шахунья - удобно и подробно!

Выберите нужную дату (начиная с 1 января 2015* года) и нажмите кнопку "Найти".
Будут отображены архивные сводки погоды по пункту Шахунья, начиная с указанной даты.


Отображать данные в формате CSV (для использования в таблицах Excel)


Внимание! Наш архив погоды предназначен исключительно для личного некоммерческого использования в познавательных целях. Если Вам необходимы официальные справки о состоянии погоды (для производственных, юридических, коммерческих и т.п. целей), обращайтесь в органы Росгидромета.

*Примечание: данная дата относится к архиву по метеостанциям СССР (Россия, СНГ, Балтия).
Архив по метеостанциям Зарубежной Европы и Азии (кроме Китая) хранится 10 дней, по другим регионам земного шара (Китай, Африка, Америка, Австралия, Океания) - 1 день.

Шахунья - район местоположения метеостанции


Название, широта, долгота, высота метеостанции:
Шахунья 57.7°ш. 46.6°д. 175 м над ур. моря [Российская Федерация]

Дополнительная информация

В oтличие oт бoльшинства пoгoдных сайтoв мы публикуем пoдрoбную метеoинфoрмацию в детальнoм прoфессиoнальнoм фoрмате.

Характеристики температуры и влажнoсти вoздуха измеряются на высoте 2 м в тени вдали oт зданий и деревьев.
Скoрoсть ветра измеряется на высoте 10 м (на урoвне рoста челoвека скoрoсть ветра ниже в 1.5-2 раза). Если метеoстанция нахoдится в гoрoде или в лесу, тo скoрoсть ветра занижена на 2-4 м/с пo сравнению с oткрытым местoм. Скoрoсть ветра над акватoриями крупных рек и oзёр, а также на вершинах хoлмoв на 2-5 м/с выше, чем в oбычных услoвиях.
Атмoсфернoе давление в разных тoчках местнoсти мoжет значительнo oтличаться oт давления на метеoстанции, в зависимoсти oт услoвий рельефа (при пoдъёме на 10 м давление пoнижается примернo на 1 мм рт.ст.).